TimeCDT,TemperatureF,Dew PointF,Humidity,Sea Level PressureIn,VisibilityMPH,Wind Direction,Wind SpeedMPH,Gust SpeedMPH,PrecipitationIn,Events,Conditions,WindDirDegrees,DateUTC
12:13 AM,48.2,33.8,58,29.81,10.0,SSW,3.5,-,N/A,,Clear,200,2012-10-03 05:13:00
12:33 AM,48.2,33.8,58,29.82,10.0,SW,3.5,-,N/A,,Clear,220,2012-10-03 05:33:00
12:53 AM,44.6,33.8,66,29.82,10.0,South,4.6,-,N/A,,Clear,190,2012-10-03 05:53:00
1:13 AM,46.4,33.8,62,29.82,10.0,South,5.8,-,N/A,,Clear,180,2012-10-03 06:13:00
1:33 AM,46.4,33.8,62,29.82,10.0,South,4.6,-,N/A,,Clear,190,2012-10-03 06:33:00
1:53 AM,48.2,35.6,62,29.82,10.0,South,4.6,-,N/A,,Clear,190,2012-10-03 06:53:00
2:13 AM,46.4,33.8,62,29.82,10.0,South,4.6,-,N/A,,Clear,190,2012-10-03 07:13:00
2:33 AM,46.4,33.8,62,29.82,10.0,South,5.8,-,N/A,,Clear,190,2012-10-03 07:33:00
2:53 AM,46.4,33.8,62,29.82,10.0,SSW,4.6,-,N/A,,Clear,200,2012-10-03 07:53:00
3:13 AM,44.6,33.8,66,29.82,10.0,SW,3.5,-,N/A,,Clear,220,2012-10-03 08:13:00
3:33 AM,46.4,33.8,62,29.82,10.0,Calm,Calm,-,N/A,,Clear,0,2012-10-03 08:33:00
3:53 AM,42.8,33.8,70,29.82,10.0,Calm,Calm,-,N/A,,Clear,0,2012-10-03 08:53:00
4:13 AM,41.0,33.8,76,29.82,10.0,Calm,Calm,-,N/A,,Clear,0,2012-10-03 09:13:00
4:33 AM,39.2,32.0,75,29.83,10.0,Calm,Calm,-,N/A,,Clear,0,2012-10-03 09:33:00
4:53 AM,37.4,32.0,81,29.84,10.0,Calm,Calm,-,N/A,,Clear,0,2012-10-03 09:53:00
5:13 AM,37.4,32.0,81,29.85,10.0,Calm,Calm,-,N/A,,Clear,0,2012-10-03 10:13:00
5:33 AM,37.4,32.0,81,29.85,10.0,Calm,Calm,-,N/A,,Clear,0,2012-10-03 10:33:00
5:53 AM,37.4,33.8,87,29.85,10.0,Calm,Calm,-,N/A,,Clear,0,2012-10-03 10:53:00
6:13 AM,35.6,30.2,81,29.86,10.0,Calm,Calm,-,N/A,,Clear,0,2012-10-03 11:13:00
6:33 AM,35.6,30.2,81,29.86,10.0,Calm,Calm,-,N/A,,Clear,0,2012-10-03 11:33:00
6:53 AM,33.8,30.2,87,29.87,10.0,Calm,Calm,-,N/A,,Clear,0,2012-10-03 11:53:00
7:13 AM,33.8,30.2,87,29.88,10.0,Calm,Calm,-,N/A,,Clear,0,2012-10-03 12:13:00
7:33 AM,33.8,30.2,87,29.89,10.0,Calm,Calm,-,N/A,,Clear,0,2012-10-03 12:33:00
7:53 AM,35.6,30.2,81,29.89,10.0,Calm,Calm,-,N/A,,Clear,0,2012-10-03 12:53:00
8:13 AM,35.6,30.2,81,29.89,10.0,Calm,Calm,-,N/A,,Clear,0,2012-10-03 13:13:00
8:33 AM,39.2,33.8,81,29.90,10.0,Calm,Calm,-,N/A,,Clear,0,2012-10-03 13:33:00
8:53 AM,42.8,35.6,76,29.90,10.0,Calm,Calm,-,N/A,,Clear,0,2012-10-03 13:53:00
9:13 AM,44.6,37.4,76,29.90,10.0,Calm,Calm,-,N/A,,Clear,0,2012-10-03 14:13:00
9:33 AM,50.0,37.4,62,29.90,10.0,Calm,Calm,-,N/A,,Clear,0,2012-10-03 14:33:00
9:53 AM,53.6,39.2,58,29.91,4.0,Calm,Calm,-,N/A,,Haze,0,2012-10-03 14:53:00
10:13 AM,55.4,39.2,54,29.91,4.0,NNE,3.5,-,N/A,,Haze,20,2012-10-03 15:13:00
10:33 AM,57.2,39.2,51,29.91,4.0,Calm,Calm,-,N/A,,Haze,0,2012-10-03 15:33:00
10:53 AM,60.8,39.2,45,29.91,4.0,North,3.5,-,N/A,,Haze,350,2012-10-03 15:53:00
11:13 AM,64.4,39.2,40,29.92,5.0,North,4.6,-,N/A,,Haze,350,2012-10-03 16:13:00
11:33 AM,64.4,39.2,40,29.91,5.0,Calm,Calm,-,N/A,,Haze,0,2012-10-03 16:33:00
11:53 AM,66.2,39.2,37,29.90,7.0,North,3.5,-,N/A,,Clear,360,2012-10-03 16:53:00
12:13 PM,66.2,39.2,37,29.89,10.0,Calm,Calm,-,N/A,,Clear,0,2012-10-03 17:13:00
12:33 PM,68.0,37.4,33,29.89,10.0,Calm,Calm,-,N/A,,Clear,0,2012-10-03 17:33:00
12:53 PM,69.8,37.4,31,29.89,10.0,West,3.5,-,N/A,,Clear,260,2012-10-03 17:53:00
1:13 PM,68.0,37.4,33,29.89,10.0,North,3.5,-,N/A,,Clear,10,2012-10-03 18:13:00
1:33 PM,68.0,37.4,33,29.89,10.0,NNW,5.8,-,N/A,,Clear,340,2012-10-03 18:33:00
1:53 PM,69.8,37.4,31,29.88,10.0,NNW,4.6,-,N/A,,Clear,330,2012-10-03 18:53:00
2:13 PM,69.8,37.4,31,29.88,10.0,North,3.5,-,N/A,,Clear,10,2012-10-03 19:13:00
2:33 PM,68.0,39.2,35,29.89,10.0,NNW,3.5,-,N/A,,Clear,330,2012-10-03 19:33:00
2:53 PM,68.0,41.0,37,29.90,10.0,NNW,9.2,-,N/A,,Clear,330,2012-10-03 19:53:00
3:13 PM,66.2,41.0,40,29.90,10.0,NNW,8.1,17.3,N/A,,Clear,330,2012-10-03 20:13:00
3:33 PM,64.4,41.0,42,29.91,10.0,North,11.5,16.1,N/A,,Clear,350,2012-10-03 20:33:00
3:53 PM,64.4,41.0,42,29.91,10.0,North,10.4,16.1,N/A,,Clear,360,2012-10-03 20:53:00
4:13 PM,66.2,41.0,40,29.90,10.0,North,8.1,-,N/A,,Clear,360,2012-10-03 21:13:00
4:33 PM,64.4,41.0,42,29.90,10.0,NNW,9.2,-,N/A,,Clear,340,2012-10-03 21:33:00
4:53 PM,62.6,41.0,45,29.91,10.0,North,9.2,-,N/A,,Clear,360,2012-10-03 21:53:00
5:13 PM,60.8,41.0,48,29.91,10.0,North,6.9,-,N/A,,Clear,360,2012-10-03 22:13:00
5:33 PM,60.8,41.0,48,29.92,10.0,North,9.2,-,N/A,,Clear,360,2012-10-03 22:33:00
5:53 PM,59.0,41.0,51,29.93,10.0,North,11.5,16.1,N/A,,Clear,360,2012-10-03 22:53:00
6:13 PM,57.2,41.0,55,29.92,10.0,North,8.1,-,N/A,,Clear,360,2012-10-03 23:13:00
6:33 PM,57.2,41.0,55,29.93,10.0,North,6.9,-,N/A,,Clear,360,2012-10-03 23:33:00
6:53 PM,57.2,41.0,55,29.93,10.0,North,6.9,-,N/A,,Clear,360,2012-10-03 23:53:00
7:13 PM,57.2,41.0,55,29.93,10.0,North,5.8,-,N/A,,Clear,10,2012-10-04 00:13:00
7:33 PM,57.2,41.0,55,29.92,10.0,NNE,6.9,-,N/A,,Clear,20,2012-10-04 00:33:00
7:53 PM,55.4,41.0,58,29.94,10.0,North,9.2,-,N/A,,Clear,10,2012-10-04 00:53:00
8:13 PM,55.4,39.2,54,29.94,10.0,NNE,8.1,-,N/A,,Clear,20,2012-10-04 01:13:00
8:33 PM,55.4,39.2,54,29.93,10.0,NE,9.2,-,N/A,,Clear,50,2012-10-04 01:33:00
8:53 PM,55.4,39.2,54,29.94,10.0,NNE,4.6,-,N/A,,Clear,30,2012-10-04 01:53:00
9:33 PM,53.6,39.2,58,29.95,10.0,North,4.6,-,N/A,,Clear,360,2012-10-04 02:33:00
9:53 PM,53.6,39.2,58,29.96,10.0,North,4.6,-,N/A,,Clear,350,2012-10-04 02:53:00
10:13 PM,53.6,41.0,62,29.96,10.0,North,5.8,-,N/A,,Clear,360,2012-10-04 03:13:00
10:33 PM,53.6,42.8,67,29.95,10.0,North,5.8,-,N/A,,Clear,360,2012-10-04 03:33:00
10:53 PM,51.8,42.8,71,29.95,10.0,North,8.1,-,N/A,,Clear,360,2012-10-04 03:53:00
11:13 PM,51.8,42.8,71,29.94,10.0,North,6.9,-,N/A,,Clear,360,2012-10-04 04:13:00
11:33 PM,51.8,42.8,71,29.95,10.0,North,9.2,-,N/A,,Clear,10,2012-10-04 04:33:00
11:53 PM,51.8,42.8,71,29.94,10.0,NNE,10.4,16.1,N/A,,Clear,20,2012-10-04 04:53:00